User: anonymous   Login
Location: Unspecified
(0.0000°N, 0.0000°E)
Time: 04:06:23
(UTC+00:00)
Language:

Vela 3A - Orbit

View from above orbital plane
View from above orbital plane
View from above satellite
View from above satellite

Ground track
Ground track

The orbit data is extracted from the following two-line orbital elements,

1 01458U 65058A   18131.09245138 -.00001473  00000-0  00000+0 0  9993
2 01458  22.8740   2.9682 5101710 238.5311 358.9632  0.21448747 79861
Epoch (UTC): 11 May 2018 02:13:07
Eccentricity: 0.5101710
inclination: 22.8740°
perigee height: 51366 km
apogee height: 171650 km
right ascension of ascending node: 2.9682°
argument of perigee: 238.5311°
revolutions per day: 0.21448747
mean anomaly at epoch: 358.9632°
orbit number at epoch: 7986

The dashed part of the orbit path shows where the satellite is in the earth's shadow,  

DLR